Regional Weather Roundup
Issued by NWS Green Bay, WI

Home | Current Version | Previous Version | Text Only | Print | Product List | Glossary On
Versions: 1 2 3 4 5 6 7 8 9 10 11 12 13 14 15 16 17 18 19 20 21 22 23 24 25 26 27 28 29 30 31 32 33 34 35 36 37 38 39 40 41 42 43 44 45 46 47 48 49 50
680
ASUS43 KGRB 071100
RWRGRB

NORTH-CENTRAL AND NORTHEAST WISCONSIN REGIONAL WEATHER ROUNDUP
NATIONAL WEATHER SERVICE GREEN BAY WI
500 AM CST WED DEC 07 2016

WIZ005-009-010>012-018-019-071200-
NORTH CENTRAL WISCONSIN

CITY           SKY/WX    TMP DP  RH WIND       PRES   REMARKS
IRONWOOD       NOT AVBL
MANITOWISH WTR NOT AVBL
ARBOR VITAE    NOT AVBL
EAGLE RIVER    NOT AVBL
LAND O LAKES   NOT AVBL
RHINELANDER    LGT SNOW  17  12  80 W17G29    29.72R WCI   1
PHILLIPS       LGT SNOW  17  13  86 SW15      29.72R WCI   2
ANTIGO         NOT AVBL
TOMAHAWK       NOT AVBL
MERRILL        LGT SNOW  17  12  83 SW18G24   29.79S WCI   0
$$

WIZ013-073-071200-
NORTHEAST WISCONSIN

CITY           SKY/WX    TMP DP  RH WIND       PRES   REMARKS
IRON MOUNTAIN  NOT AVBL
MARINETTE      NOT AVBL
$$

WIZ017-030-035>037-045-071200-
CENTRAL WISCONSIN

CITY           SKY/WX    TMP DP  RH WIND       PRES   REMARKS
MEDFORD        NOT AVBL
WAUSAU         FLURRIES  18  12  77 W18G24    29.81R WCI   2
MOSINEE        NOT AVBL
MARSHFIELD     CLOUDY    17  10  74 W20G28    29.83R WCI   1
WISC RAPIDS    CLEAR     18  12  77 W10       29.88S WCI   6
STEVENS POINT  NOT AVBL
WAUPACA        MOCLDY    23  15  71 SW14G25   29.87S
SHAWANO        CLOUDY    24  15  68 W17G26    29.84R
CLINTONVILLE   CLOUDY    23  14  68 W13G22    29.85S
WAUTOMA        PTCLDY    19  13  77 SW14      29.90R WCI   6
$$

WIZ038-039-048-051-071200-
FOX VALLEY

CITY           SKY/WX    TMP DP  RH WIND       PRES   REMARKS
NWS GREEN BAY  CLOUDY    25  17  72 W15G23    29.86R
APPLETON       NOT AVBL
OSHKOSH        CLEAR     21  13  71 W12G21    29.89R WCI   9
FOND DU LAC    CLEAR     22  13  68 SW16G22   29.91R WCI   8
$$

WIZ022-050-052-071200-
EAST CENTRAL WISCONSIN

CITY           SKY/WX    TMP DP  RH WIND       PRES   REMARKS
EPHRAIM        CLOUDY    26  16  66 W18G30    29.77R
WASHINGTON ISL CLOUDY    26  17  66 W20G26    29.76R
STURGEON BAY   CLOUDY    25  17  72 SW20G26   29.81R
MANITOWOC      NOT AVBL
SHEBOYGAN      CLEAR     23  15  71 W24G30    29.89R WCI   7
$$

LMZ563-521-522-541>543-071200-
LAKESHORE

STATION/POSITION TIME  TEMP    WIND        PRES    VSBY  WAVE
                       AIR SEA DIR/SP/G                  HT/PER
                 (UTC) (F)     (DEG/KT/KT) (MB)    (MI)  (FT/S)
SHEBOYGAN LKSHOR 1000   25     240/ 18/ 24 1012.4R
KEWAUNEE LKSHORE 1030   26     350/ 21/ 28 1010.1R
ALGOMA MARINA    1021          280/ 19/ 26   N/A
NORTHPORT PIER   1042   27     260/ 10/ 22 1008.1S
CHAMBERS ISLAND  1040   26     230/ 11/ 20 1008.1R
MENOMINEE LKSHOR 1030   25     230/ 18/ 26 1008.2R
$$




USA.gov is the U.S. government's official web portal to all federal, state and local government web resources and services.